Regional Weather Roundup
Issued by NWS Charleston, SC

Current Version | Previous Version | Text Only | Print | Product List | Glossary Off
Versions: 1 2 3 4 5 6 7 8 9 10 11 12 13 14 15 16 17 18 19 20 21 22 23 24 25 26 27 28 29 30 31 32 33 34 35 36 37 38 39 40 41 42 43 44 45 46 47 48 49 50

000
ASUS42 KCHS 170012
RWRCHS

REGIONAL WEATHER ROUNDUP
NATIONAL WEATHER SERVICE CHARLESTON SC
700 PM EST MON JAN 16 2017

NOTE: "FAIR" INDICATES FEW OR NO CLOUDS BELOW 12,000 FEET WITH NO
SIGNIFICANT WEATHER AND/OR OBSTRUCTIONS TO VISIBILITY.

NOT ALL STATIONS ARE QUALITY CONTROLLED. USE DATA WITH CAUTION...
ESPECIALLY DEWPOINT OBSERVATIONS.

SCZ027-030-031-034>040-042>050-170100-
...SOUTHEAST SOUTH CAROLINA...

CITY           SKY/WX    TMP DP  RH WIND       PRES   REMARKS
N CHARLESTON   CLOUDY    60  56  86 NE7       30.32F
6HR MIN TEMP:  60; 6HR MAX TEMP:  64; 6HR PCP: TRACE;

WATERFRONT PRK   N/A     59  57  93 N5        30.32R
MOUNT PLEASANT CLOUDY    57  55  94 CALM      30.33F
JOHNS ISLAND   CLOUDY    59  57  94 NE7       30.32F
PINOPOLIS        N/A     55  55 100 E5        30.24F
MONCKS CORNER  CLOUDY    57  55  94 CALM      30.33S FOG
SUMMERVILLE    CLOUDY   N/A N/A N/A CALM      30.33F
BEAUFORT MCAS  CLOUDY    62  58  86 E6        30.30S
6HR MIN TEMP:  62; 6HR MAX TEMP:  69;

BEAUFORT ARPT  CLOUDY    61  59  94 E8        30.30F
HILTON HEAD IS MOCLDY    57  57 100 E7        30.31S
WALTERBORO     CLOUDY    63 N/A N/A E5        30.32S
ALLENDALE      FAIR      61  57  88 CALM      30.29S

...SOUTHERN MIDLANDS AND PEE DEE...

CITY           SKY/WX    TMP DP  RH WIND       PRES   REMARKS
GEORGETOWN     CLOUDY    55  52  88 E3        30.34F
KINGSTREE      CLOUDY    54  52  94 CALM      30.35R FOG
ORANGEBURG     CLOUDY    56  54  93 E7        30.32S
6HR MIN TEMP:  56; 6HR MAX TEMP:  58;

BARNWELL       FAIR      59  57  94 E7        30.30F
AIKEN          CLOUDY    54  54 100 E8        30.34S FOG
MANNING        CLOUDY    54  52  94 E3        30.34S
COLUMBIA       CLOUDY    56  52  86 E7        30.32F
6HR MIN TEMP:  56; 6HR MAX TEMP:  59;

SUMTER         CLOUDY    53  51  94 E5        30.32S
6HR MIN TEMP:  53; 6HR MAX TEMP:  54;

FLORENCE       CLOUDY    54  52  93 CALM      30.35S
6HR MIN TEMP:  50; 6HR MAX TEMP:  54;

MYRTLE BEACH   MOCLDY    57  50  77 N8        30.37R
N MYRTLE BEACH CLOUDY    54  51  90 NE5       30.34F
6HR MIN TEMP:  54; 6HR MAX TEMP:  61;


$$

GAZ063-065-086>088-099>101-113>116-118-119-134>141-150-170100-
...SOUTHEAST GEORGIA...

CITY           SKY/WX    TMP DP  RH WIND       PRES   REMARKS
SAVANNAH ARPT  FOG       61  58  90 E10       30.29S VSB 1/2
6HR MIN TEMP:  61; 6HR MAX TEMP:  75;

HUNTER AAF     PTCLDY    59  59 100 E7        30.27S FOG
FORT STEWART   CLEAR     61  57  87 E8        30.26S
6HR MIN TEMP:  61; 6HR MAX TEMP:  75;

STATESBORO     PTCLDY    67  62  82 E3        30.28S HAZE
SYLVANIA       PTCLDY   N/A N/A N/A SE6       30.29S
CLAXTON        MOCLDY   N/A N/A N/A E5        30.27S

...CSRA...CENTRAL AND FAR SOUTHEAST GEORGIA...

CITY           SKY/WX    TMP DP  RH WIND       PRES   REMARKS
THOMSON        PTCLDY    60  58  94 CALM      30.33S
AUGUSTA-BUSH   MOCLDY    59  55  87 E7        30.29R
6HR MIN TEMP:  59; 6HR MAX TEMP:  76;

AUGUSTA-DANIEL MOCLDY    59  54  83 E9        30.30R
SWAINSBORO     CLOUDY    70  55  60 SE7       30.26S
VIDALIA        PTCLDY    68  61  77 E5        30.26R
EASTMAN        FAIR      61  46  58 CALM      30.27S
HAZLEHURST     FAIR      64  58  79 CALM      30.24S
ALMA           CLOUDY    63  57  81 CALM      30.24S
6HR MIN TEMP:  63; 6HR MAX TEMP:  78;

WAYCROSS       MOCLDY    71  63  73 SE8       30.25S
JESUP          FAIR      64  55  72 SE6       30.28R
BAXLEY         MOCLDY    70  61  73 SE5       30.25S
BRUNSWICK      FOG       61  61 100 NE8       30.29S VSB 3/4
SAINT SIMONS   FOG       60  59  96 NE12      30.28S VSB 1/2
6HR MIN TEMP:  60; 6HR MAX TEMP:  70;


$$

SCZ027-028-034-036>038-045-046-048>050-GAZ119-141-170100-
...LAKE AND SUPPLEMENTAL COASTAL OBSERVATIONS...

STATION/POSITION TIME  TEMP    WIND        PRES    WAVE   SWELL
                       AIR SEA DIR/SP/G            HT/PER HT/PER/DIR
                 (UTC) (F)     (DEG/KT/KT) (MB)    (FT/S) (FT/S/D)
WINYAH BAY       2245   56      20/  3     1027.0
LAKE MURRAY      2320   54      80/  9/ 10 1026.1
ACE BASIN NERRS  2245   63      80/  2     1027.0
FORT PULASKI     2348   57 55   80/ 13/ 16 1026.3S
SAPELO ISLAND    2300   60      80/ 10     1025.0

$$

ANZ835-935-AMZ111-154-330-350-352-354-370-450-454-472-170100-
...C-MAN AND BUOY OBSERVATIONS...

STATION/POSITION TIME  TEMP    WIND        PRES    WAVE   SWELL
                       AIR SEA DIR/SP/G            HT/PER HT/PER/DIR
                 (UTC) (F)     (DEG/KT/KT) (MB)    (FT/S) (FT/S/D)
BUOY 41004       2250   67 71   20/ 10/ 12 1025.8    4/ 6   3/ 50/ 6
BUOY 41008       2250   60 60   70/ 12/ 14 1025.2    3/10   2/150/10
FOLLY BEACH CMAN 2300   56      50/ 13/ 15 1027.1R
CAPERS NEARSHORE 2308   54 54   50/ 10/ 14 1027.2R
FRIPP NEARSHORE  2308   56 56   60/ 14/ 17 1026.4R


STATION/POSITION TIME  TEMP    WIND        PRES    WAVE   SWELL
                       AIR SEA DIR/SP/G            HT/PER HT/PER/DIR
                 (UTC) (F)     (DEG/KT/KT) (MB)    (FT/S) (FT/S/D)
5E ST. MARYS GA  2330      62                N/A     2/11   2/ 90/11
FRYING PAN BUOY  2350   65 70   40/ 16/ 17 1026.8F   4/ 6   2/100/ 8
BUOY 41025       2350   55 73   10/ 14/ 16 1027.6F   3/ 8   2/100/ 8
CAPE LOOKOUT NC  2300   50      10/  5/  7 1028.1S
BUOY 41002       2250   69 71  130/  8/ 10 1026.7    4/ 8   3/ 20/ 8
BUOY 41010       NOT AVBL
ST AUGUSTINE FL  0000   68 67   90/  9/  9 1025.5R


$$



USA.gov is the U.S. government's official web portal to all federal, state and local government web resources and services.